Regional Weather Roundup
Issued by NWS

Home | Current Version | Previous Version | Graphics & Text | Print | Product List | Glossary On
Versions: 1 2 3 4 5 6 7 8 9 10 11 12 13 14 15 16 17 18 19 20 21 22 23 24 25 26 27 28 29 30 31 32 33 34 35 36 37 38 39 40 41 42 43 44 45 46 47 48 49 50
248
ASUS43 KLOT 130408
RWRIL

ILLINOIS REGIONAL WEATHER ROUNDUP
NATIONAL WEATHER SERVICE CHICAGO/ROMEOVILLE IL
1000 PM CST FRI FEB 12 2016

NOTE: "FAIR" INDICATES FEW OR NO CLOUDS BELOW 12,000 FEET WITH NO
SIGNIFICANT WEATHER AND/OR OBSTRUCTIONS TO VISIBILITY.

* THESE STATIONS ARE NOT UNDER NWS QUALITY CONTROL. THEY ALSO MAY NOT
  REPORT WEATHER SUCH AS PRECIPITATION OR FOG.

ILZ001-002-007-009-015-016-024-130500-
NORTHWEST ILLINOIS

CITY           SKY/WX    TMP DP  RH WIND       PRES   REMARKS
MOLINE         CLEAR     10  -3  55 NW16G23   30.53R WCI  -7
STERLING*      CLEAR     12  -6  44 NW18      30.46R WCI  -5
SAVANNA*       CLEAR     10  -6  48 N10G18    30.51R WCI  -4
$$

ILZ003-004-008-010-011-017-018-130500-
NORTH CENTRAL ILLINOIS

CITY           SKY/WX    TMP DP  RH WIND       PRES   REMARKS
ROCKFORD       CLEAR      9  -8  46 N12G23    30.48R WCI  -6
FREEPORT*      PTCLDY     8  -6  51 NW16      30.49R WCI  -9
ROCHELLE*      PTCLDY    10  -7  47 N18G25    30.46R WCI  -8
DE KALB*       PTCLDY    10  -3  56 N15       30.43R WCI  -7
$$

ILZ005-006-012>014-019>023-130500-
NORTHEAST ILLINOIS

CITY           SKY/WX    TMP DP  RH WIND       PRES   REMARKS
CHICAGO-OHARE  PTCLDY     9  -8  46 N23G30    30.42R WCI -11
CHICAGO-MIDWAY PTCLDY    12  -8  40 NW17      30.43R WCI  -5
AURORA         CLEAR     11  -5  48 N16G26    30.44R WCI  -6
LANSING*       CLEAR     12  -9  39 NW17G24   30.41R WCI  -6
JOLIET*        CLEAR     13  -5  44 N12G23    30.44R WCI   0
WAUKEGAN       CLEAR      7  -8  50 N13G22    30.42R WCI  -9
DUPAGE AIRPORT CLEAR      9  -9  44 N21       30.42R WCI -11
KANKAKEE*      CLEAR     15  -4  43 NW13G24   30.42R WCI   1
WHEELING       CLEAR      9  -6  50 N14G25    30.44R WCI  -7
MORRIS*        PTCLDY    13  -3  50 N10G17    30.41R WCI   0
ROMEOVILLE*    CLEAR     10  -9  42 N17G29    30.43R WCI  -7
NORTHERLY ISL    N/A     13   0  56 NW13        N/A  WCI  -1
$$

LMZ740>746-130500-
SOUTHERN LAKE MICHIGAN

STATION/POSITION SKY/WX   TEMP    WIND        PRES    VSBY  WAVE
                          AIR SEA DIR/SP/G                  HT/PER
                          (F)     (DEG/KT/KT) (MB)    (MI)  (FT/S)
HARRISON CRIB              13     330/ 27/ 32   N/A
BURNHAM HARBOR             12     320/ 10/ 22   N/A
CALUMET HARBOR             12                 1028.1R
BURNS HARBOR               16     330/ 21     1027.8R
MICHIGAN CITY              16     290/ 28/ 36   N/A
$$

ILZ025>027-034>036-040-047-049-050-058-095>099-130500-
WEST-CENTRAL ILLINOIS

CITY           SKY/WX    TMP DP  RH WIND       PRES   REMARKS
QUINCY         CLOUDY    12   3  67 NW15      30.54R WCI  -4
GALESBURG*     CLEAR     10   0  66 NW12      30.51R WCI  -5
MACOMB*        CLEAR     13   4  68 NW14      30.55R WCI  -3
JACKSONVILLE*  PTCLDY    17   5  59 NW15G23   30.51R WCI   3
PITTSFIELD*    PTCLDY    15   6  66 NW9       30.53R WCI   3
$$

ILZ028>032-037-038-041>044-048-051>054-059>061-130500-
CENTRAL ILLINOIS

CITY           SKY/WX    TMP DP  RH WIND       PRES   REMARKS
PONTIAC        CLEAR     15   3  58 NW16      30.45R WCI   0
BLOOMINGTON    PTCLDY    12   3  67 NW16      30.45R WCI  -5
DECATUR        CLEAR     16   2  54 NW20G25   30.45R WCI  -1
PEORIA         CLEAR     12  -1  56 NW14G24   30.50R WCI  -3
LACON*         CLEAR     12  -1  55 NW12      30.48R WCI  -2
LINCOLN*       CLEAR     15   4  62 NW13G20   30.48R WCI   1
SPRINGFIELD    CLEAR     17   4  56 NW15      30.49R WCI   2
TAYLORVILLE    CLEAR     18   5  57 NW18G24   30.48R WCI   2
$$

ILZ033-039-045-046-055>057-062-063-130500-
EAST-CENTRAL ILLINOIS

CITY           SKY/WX    TMP DP  RH WIND       PRES   REMARKS
CHAMPAIGN      CLEAR     15   5  64 NW20      30.42R WCI  -2
RANTOUL*       PTCLDY    16   7  67 NW14G21   30.42R WCI   2
MATTOON        CLEAR     16   4  59 NW21      30.42R WCI  -1
PARIS*         CLEAR     17   8  68 NW17      30.41R WCI   1
$$

ILZ079-100>102-130500-
SOUTHWEST ILLINOIS

CITY           SKY/WX    TMP DP  RH WIND       PRES   REMARKS
ALTON          CLEAR     19   7  58 NW13G18   30.50R WCI   7
BELLEVILLE     CLEAR     21   8  56 NW9       30.48R WCI  11
CAHOKIA*       CLEAR     22   3  44 NW21G30   30.51R WCI   6
SPARTA*        CLEAR     24  11  58 NW12      30.49R WCI  12
$$

ILZ064>066-069>071-074>076-080>082-084>086-088>090-092>094-130500-
SOUTH-CENTRAL ILLINOIS

CITY           SKY/WX    TMP DP  RH WIND       PRES   REMARKS
CARBONDALE     CLEAR     24  12  60 N12       30.47R WCI  13
CAIRO*         CLEAR     28  18  68 NW10      30.46R WCI  18
EFFINGHAM*     CLEAR     20   7  56 NW18G25   30.46R WCI   5
MARION         PTCLDY    25  16  68 NW3       30.47R
MT. VERNON     CLEAR     23   9  54 W6        30.46R WCI  16
CENTRALIA*     CLEAR     23  12  61 NW12      30.45R WCI  12
SALEM*         CLEAR     23   8  52 NW17G23   30.46R WCI   9
METROPOLIS*    CLEAR     27  18  67 NW10      30.45R WCI  17
$$

ILZ067-068-072-073-078-083-087-091-130500-
SOUTHEAST ILLINOIS

CITY           SKY/WX    TMP DP  RH WIND       PRES   REMARKS
LAWRENCEVILLE  CLEAR     22   5  48 NW17      30.42R WCI   8
FLORA*         CLEAR     24   9  54 NW14G21   30.45R WCI  11
FAIRFIELD*     CLOUDY    25  13  62 NW5       30.44R WCI  19
HARRISBURG*    CLEAR     25  14  63 NW9       30.46R WCI  15
ROBINSON*      PTCLDY    20   5  53 NW14      30.44R WCI   6
CARMI*         PTCLDY    23  15  70 NW14      30.43R WCI  11
$$

ABBREVIATIONS USED IN REMARKS
   TC - TEMPERATURE IN CELSIUS
  WCI - WIND CHILL INDEX
   HX - HEAT INDEX
  VSB - VISIBILITY
$$





USA.gov is the U.S. government's official web portal to all federal, state and local government web resources and services.